| time (UTC) | temp F | wind direction | speed MPH | gust MPH | rain 1hr in | rain 24hr in | rain mn in | humidity % | barometer mb |
| 20260507124056 | 44 | 327 | 0.0 | 3.0 | 0.00 | 0.00 | 0.00 | 69 | 1016.1 |
| 20260507122820 | 43 | 346 | 0.0 | 3.0 | 0.00 | 0.00 | 0.00 | 72 | 1016.3 |
| 20260507121634 | 43 | 0 | 0.0 | 3.0 | 0.00 | 0.00 | 0.00 | 73 | 1016.3 |
| 20260507120438 | 42 | 207 | 0.0 | 0.0 | 0.00 | 0.00 | 0.00 | 75 | 1016.4 |
| 20260507115238 | 41 | 206 | 0.0 | 0.0 | 0.00 | 0.00 | 0.00 | 77 | 1016.2 |
| 20260507114057 | 41 | 206 | 0.0 | 0.0 | 0.00 | 0.00 | 0.00 | 77 | 1016.3 |
| 20260507112840 | 41 | 203 | 0.0 | 0.0 | 0.00 | 0.00 | 0.00 | 78 | 1016.1 |
| 20260507111608 | 40 | 203 | 0.0 | 0.0 | 0.00 | 0.00 | 0.00 | 79 | 1015.9 |
| 20260507110357 | 40 | 203 | 0.0 | 0.0 | 0.00 | 0.00 | 0.00 | 80 | 1015.9 |
| 20260507105211 | 39 | 203 | 0.0 | 0.0 | 0.00 | 0.00 | 0.00 | 81 | 1015.8 |
| 20260507103943 | 39 | 203 | 0.0 | 0.0 | 0.00 | 0.00 | 0.00 | 81 | 1015.6 |
| 20260507102705 | 40 | 203 | 0.0 | 0.0 | 0.00 | 0.00 | 0.00 | 80 | 1015.6 |
| 20260507101529 | 40 | 203 | 0.0 | 0.0 | 0.00 | 0.00 | 0.00 | 80 | 1015.6 |
| 20260507100359 | 40 | 203 | 0.0 | 0.0 | 0.00 | 0.00 | 0.00 | 78 | 1015.6 |
| 20260507095201 | 40 | 203 | 0.0 | 0.0 | 0.00 | 0.00 | 0.00 | 79 | 1015.6 |
| 20260507093932 | 39 | 203 | 0.0 | 0.0 | 0.00 | 0.00 | 0.00 | 80 | 1015.4 |
| 20260507092749 | 39 | 203 | 0.0 | 0.0 | 0.00 | 0.00 | 0.00 | 81 | 1015.5 |
| 20260507091516 | 38 | 203 | 0.0 | 0.0 | 0.00 | 0.00 | 0.00 | 82 | 1015.4 |
| 20260507090329 | 38 | 203 | 0.0 | 0.0 | 0.00 | 0.00 | 0.00 | 83 | 1015.5 |
| 20260507085058 | 38 | 203 | 0.0 | 0.0 | 0.00 | 0.00 | 0.00 | 83 | 1015.5 |
| 20260507083926 | 38 | 203 | 0.0 | 0.0 | 0.00 | 0.00 | 0.00 | 84 | 1015.3 |
| 20260507082657 | 38 | 203 | 0.0 | 0.0 | 0.00 | 0.00 | 0.00 | 84 | 1015.2 |
| 20260507081431 | 38 | 203 | 0.0 | 0.0 | 0.00 | 0.00 | 0.00 | 84 | 1015.3 |
| 20260507080212 | 38 | 203 | 0.0 | 0.0 | 0.00 | 0.00 | 0.00 | 84 | 1015.4 |
| 20260507074937 | 38 | 203 | 0.0 | 0.0 | 0.00 | 0.00 | 0.00 | 84 | 1015.4 |
| 20260507073804 | 38 | 203 | 0.0 | 0.0 | 0.00 | 0.00 | 0.00 | 84 | 1015.3 |
| 20260507072528 | 39 | 203 | 0.0 | 0.0 | 0.00 | 0.00 | 0.00 | 84 | 1015.4 |
| 20260507071333 | 39 | 203 | 0.0 | 0.0 | 0.00 | 0.00 | 0.00 | 84 | 1015.2 |
| 20260507070156 | 39 | 203 | 0.0 | 0.0 | 0.00 | 0.00 | 0.00 | 83 | 1015.5 |
| 20260507065008 | 39 | 203 | 0.0 | 0.0 | 0.00 | 0.00 | 0.00 | 83 | 1015.5 |
| 20260507063749 | 40 | 203 | 0.0 | 0.0 | 0.00 | 0.00 | 0.00 | 82 | 1015.4 |
| 20260507062557 | 40 | 203 | 0.0 | 0.0 | 0.00 | 0.01 | 0.00 | 82 | 1015.5 |
| 20260507061418 | 41 | 203 | 0.0 | 0.0 | 0.00 | 0.01 | 0.00 | 82 | 1015.4 |
| 20260507060156 | 41 | 203 | 0.0 | 0.0 | 0.00 | 0.01 | 0.00 | 82 | 1015.6 |
| 20260507054938 | 41 | 203 | 0.0 | 0.0 | 0.00 | 0.01 | 0.00 | 82 | 1015.5 |
| 20260507053752 | 41 | 203 | 0.0 | 0.0 | 0.00 | 0.01 | 0.00 | 81 | 1015.5 |
| 20260507052547 | 42 | 203 | 0.0 | 0.0 | 0.00 | 0.01 | 0.00 | 82 | 1015.4 |
| 20260507051315 | 42 | 203 | 0.0 | 0.0 | 0.00 | 0.01 | 0.00 | 81 | 1015.4 |
| 20260507050125 | 42 | 203 | 0.0 | 0.0 | 0.00 | 0.01 | 0.00 | 80 | 1015.4 |
| 20260507044858 | 42 | 203 | 0.0 | 0.0 | 0.00 | 0.01 | 0.00 | 81 | 1015.4 |
| 20260507043655 | 42 | 203 | 0.0 | 0.0 | 0.00 | 0.01 | 0.00 | 82 | 1015.3 |
| 20260507042525 | 42 | 203 | 0.0 | 0.0 | 0.00 | 0.01 | 0.00 | 82 | 1015.4 |
| 20260507041247 | 42 | 203 | 0.0 | 0.0 | 0.00 | 0.01 | 0.00 | 81 | 1015.2 |
| 20260507040104 | 43 | 203 | 0.0 | 0.0 | 0.00 | 0.01 | 0.00 | 81 | 1015.2 |
| 20260507034916 | 43 | 203 | 0.0 | 0.0 | 0.00 | 0.01 | 0.01 | 80 | 1015.2 |
| 20260507033706 | 43 | 203 | 0.0 | 0.0 | 0.00 | 0.01 | 0.01 | 80 | 1015.2 |
| 20260507032533 | 43 | 203 | 0.0 | 0.0 | 0.00 | 0.01 | 0.01 | 80 | 1015.1 |
| 20260507031348 | 44 | 203 | 0.0 | 0.0 | 0.00 | 0.01 | 0.01 | 80 | 1015.1 |
| 20260507030215 | 44 | 203 | 0.0 | 0.0 | 0.00 | 0.01 | 0.01 | 79 | 1015.2 |
| 20260507025030 | 45 | 203 | 0.0 | 0.0 | 0.00 | 0.01 | 0.01 | 78 | 1015.1 |
| 20260507023833 | 46 | 203 | 0.0 | 0.0 | 0.00 | 0.01 | 0.01 | 76 | 1015.0 |
| 20260507022556 | 47 | 203 | 0.0 | 1.0 | 0.00 | 0.01 | 0.01 | 74 | 1015.1 |
| 20260507021410 | 47 | 203 | 0.0 | 0.0 | 0.00 | 0.01 | 0.01 | 74 | 1015.1 |
| 20260507020203 | 48 | 203 | 0.0 | 0.0 | 0.00 | 0.01 | 0.01 | 72 | 1015.0 |
| 20260507014953 | 49 | 256 | 0.0 | 0.0 | 0.00 | 0.01 | 0.01 | 70 | 1014.9 |
| 20260507013738 | 50 | 256 | 0.0 | 1.0 | 0.00 | 0.01 | 0.01 | 67 | 1014.9 |
| 20260507012522 | 50 | 257 | 0.0 | 0.0 | 0.00 | 0.01 | 0.01 | 68 | 1014.8 |
| 20260507011241 | 50 | 257 | 0.0 | 3.0 | 0.00 | 0.01 | 0.01 | 67 | 1014.6 |
| 20260507010017 | 50 | 277 | 0.0 | 2.0 | 0.00 | 0.01 | 0.01 | 71 | 1014.6 |
| 20260507004801 | 50 | 277 | 0.0 | 0.0 | 0.00 | 0.01 | 0.01 | 69 | 1014.5 |
| 20260507003556 | 51 | 277 | 0.0 | 0.0 | 0.00 | 0.01 | 0.01 | 71 | 1014.3 |
| 20260507002335 | 52 | 277 | 0.0 | 0.0 | 0.00 | 0.03 | 0.01 | 71 | 1014.0 |
| 20260507001156 | 53 | 277 | 0.0 | 0.0 | 0.00 | 0.03 | 0.01 | 62 | 1013.9 |
| 20260507000023 | 53 | 36 | 0.0 | 2.0 | 0.00 | 0.04 | 0.01 | 59 | 1013.8 |
| 20260506234755 | 55 | 15 | 0.0 | 1.0 | 0.00 | 0.04 | 0.01 | 56 | 1014.0 |
| 20260506233534 | 55 | 294 | 0.0 | 0.0 | 0.00 | 0.06 | 0.01 | 59 | 1014.2 |
| 20260506232309 | 55 | 46 | 0.0 | 0.0 | 0.00 | 0.06 | 0.01 | 57 | 1014.1 |
| 20260506231059 | 55 | 126 | 0.0 | 2.0 | 0.00 | 0.07 | 0.01 | 54 | 1014.1 |
| 20260506225901 | 56 | 304 | 0.0 | 7.0 | 0.00 | 0.07 | 0.01 | 54 | 1014.0 |
| 20260506224645 | 56 | 277 | 0.0 | 4.0 | 0.00 | 0.07 | 0.01 | 56 | 1014.2 |
| 20260506223515 | 56 | 9 | 0.0 | 8.0 | 0.00 | 0.07 | 0.01 | 50 | 1014.1 |
| 20260506222306 | 56 | 335 | 0.0 | 8.0 | 0.00 | 0.07 | 0.01 | 52 | 1014.1 |
| 20260506221116 | 57 | 18 | 1.0 | 7.0 | 0.00 | 0.10 | 0.01 | 47 | 1014.0 |
| 20260506215939 | 57 | 296 | 3.0 | 11.0 | 0.00 | 0.10 | 0.01 | 49 | 1013.9 |
| 20260506214749 | 58 | 347 | 0.0 | 7.0 | 0.00 | 0.12 | 0.01 | 48 | 1013.8 |
| 20260506213616 | 58 | 101 | 0.0 | 6.0 | 0.00 | 0.13 | 0.01 | 51 | 1013.8 |
| 20260506212440 | 57 | 221 | 0.0 | 3.0 | 0.00 | 0.14 | 0.01 | 51 | 1013.8 |
| 20260506211200 | 57 | 233 | 0.0 | 8.0 | 0.00 | 0.14 | 0.01 | 44 | 1013.9 |
| 20260506210014 | 57 | 272 | 0.0 | 8.0 | 0.00 | 0.15 | 0.01 | 55 | 1014.1 |
| 20260506204814 | 58 | 355 | 1.0 | 9.0 | 0.00 | 0.15 | 0.01 | 50 | 1014.1 |
| 20260506203635 | 58 | 5 | 1.0 | 9.0 | 0.00 | 0.15 | 0.01 | 50 | 1014.2 |
| 20260506202410 | 57 | 302 | 3.0 | 11.0 | 0.00 | 0.15 | 0.01 | 45 | 1014.0 |
| 20260506201144 | 57 | 309 | 3.0 | 11.0 | 0.00 | 0.15 | 0.01 | 47 | 1014.2 |
| 20260506195922 | 58 | 5 | 1.0 | 8.0 | 0.00 | 0.15 | 0.01 | 48 | 1014.3 |
| 20260506194753 | 58 | 43 | 1.0 | 8.0 | 0.00 | 0.15 | 0.01 | 45 | 1014.5 |
| 20260506193623 | 56 | 317 | 1.0 | 4.0 | 0.00 | 0.15 | 0.01 | 43 | 1014.6 |
| 20260506192346 | 57 | 37 | 1.0 | 8.0 | 0.00 | 0.17 | 0.01 | 46 | 1014.6 |
| 20260506191110 | 56 | 290 | 1.0 | 8.0 | 0.00 | 0.17 | 0.01 | 47 | 1014.7 |
| 20260506185859 | 56 | 339 | 0.0 | 3.0 | 0.00 | 0.17 | 0.01 | 54 | 1014.6 |
| 20260506184659 | 56 | 260 | 1.0 | 6.0 | 0.00 | 0.17 | 0.01 | 52 | 1014.6 |
| 20260506183513 | 55 | 348 | 1.0 | 7.0 | 0.00 | 0.17 | 0.01 | 48 | 1014.6 |
| 20260506182240 | 55 | 12 | 0.0 | 8.0 | 0.00 | 0.17 | 0.01 | 47 | 1014.5 |
| 20260506181104 | 55 | 13 | 1.0 | 8.0 | 0.00 | 0.18 | 0.01 | 46 | 1014.6 |
| 20260506175835 | 55 | 347 | 1.0 | 4.0 | 0.00 | 0.19 | 0.01 | 54 | 1014.7 |
| 20260506174602 | 55 | 355 | 1.0 | 7.0 | 0.00 | 0.20 | 0.01 | 51 | 1014.6 |
| 20260506173354 | 56 | 308 | 1.0 | 7.0 | 0.00 | 0.22 | 0.01 | 48 | 1014.5 |
| 20260506172201 | 57 | 0 | 1.0 | 7.0 | 0.00 | 0.23 | 0.01 | 43 | 1014.3 |
| 20260506170958 | 55 | 332 | 1.0 | 12.0 | 0.00 | 0.23 | 0.01 | 44 | 1014.3 |
| 20260506165730 | 56 | 49 | 4.0 | 12.0 | 0.00 | 0.24 | 0.01 | 45 | 1014.3 |
| 20260506164514 | 56 | 47 | 3.0 | 11.0 | 0.00 | 0.24 | 0.01 | 44 | 1014.3 |
| 20260506163322 | 55 | 19 | 1.0 | 4.0 | 0.00 | 0.24 | 0.01 | 46 | 1014.4 |
| 20260506162102 | 55 | 328 | 1.0 | 9.0 | 0.00 | 0.24 | 0.01 | 47 | 1014.4 |
| 20260506160926 | 54 | 34 | 1.0 | 7.0 | 0.00 | 0.24 | 0.01 | 44 | 1014.6 |
| 20260506155737 | 55 | 333 | 3.0 | 9.0 | 0.00 | 0.24 | 0.01 | 45 | 1014.5 |
| 20260506154550 | 55 | 0 | 3.0 | 12.0 | 0.00 | 0.24 | 0.01 | 50 | 1014.7 |
| 20260506153417 | 55 | 342 | 4.0 | 12.0 | 0.00 | 0.24 | 0.01 | 45 | 1014.6 |
| 20260506152240 | 55 | 44 | 3.0 | 9.0 | 0.00 | 0.24 | 0.01 | 48 | 1014.6 |
| 20260506151018 | 54 | 318 | 3.0 | 9.0 | 0.00 | 0.24 | 0.01 | 45 | 1014.6 |
| 20260506145803 | 55 | 348 | 3.0 | 8.0 | 0.00 | 0.24 | 0.01 | 53 | 1014.5 |
| 20260506144547 | 54 | 33 | 3.0 | 11.0 | 0.00 | 0.24 | 0.01 | 51 | 1014.3 |
| 20260506143402 | 53 | 38 | 3.0 | 11.0 | 0.00 | 0.24 | 0.01 | 50 | 1014.3 |
| 20260506142203 | 52 | 17 | 3.0 | 9.0 | 0.00 | 0.24 | 0.01 | 57 | 1014.2 |
| 20260506141018 | 52 | 319 | 4.0 | 9.0 | 0.00 | 0.24 | 0.01 | 51 | 1014.0 |
| 20260506135844 | 52 | 55 | 3.0 | 7.0 | 0.00 | 0.24 | 0.01 | 58 | 1013.8 |
| 20260506134649 | 51 | 57 | 4.0 | 12.0 | 0.00 | 0.24 | 0.01 | 56 | 1013.7 |
| 20260506133416 | 51 | 0 | 3.0 | 12.0 | 0.00 | 0.24 | 0.01 | 58 | 1013.7 |
| 20260506132200 | 49 | 21 | 1.0 | 6.0 | 0.00 | 0.24 | 0.01 | 64 | 1013.5 |
| 20260506131011 | 49 | 49 | 1.0 | 6.0 | 0.00 | 0.24 | 0.01 | 63 | 1013.5 |
| 20260506125816 | 48 | 33 | 1.0 | 7.0 | 0.00 | 0.24 | 0.01 | 65 | 1013.4 |